Home > Time Zones > World Clock > Weather > U.S.A. > Gary > Past weeks

Flag for U.S.A. Weather past 2 weeks in Gary, Indiana, U.S.A.

Now
47 °F

Sunny.


Feels Like: 45 °F
Forecast: 47 / 63 °F
Wind: 3 mph from Northwest

Location: Lansing Municipal Airport

Current Time: Sep 16, 2014 at 7:31:20 AM

Latest Report: Sep 16, 2014 at 6:55 AM


Visibility: 10 mi

Pressure: 30.20 "Hg

Humidity: 97%

Dew point: 46 °F

Location of GaryLocation

Historic Weather in Gary — Graph

°F

Gary temperature yesterday

Maximum temperature yesterday: 58 °F (at 1:35 PM)
Minimum temperature yesterday: 47 °F (at 1:15 AM)
Average temperature yesterday: 54 °F

Past Weeks' High & Low Weather Summary

 TemperatureHumidityPressure
High87 °F (Sep 5, 2:35 PM)99% (Sep 14, 6:55 AM)30.37 "Hg (Sep 14, 6:55 AM)
Low40 °F (Sep 13, 6:15 AM)38% (Sep 7, 1:55 PM)29.58 "Hg (Sep 10, 2:35 PM)
Average62 °F79%30.09 "Hg
* Reported Sep 3 7:35 AM — Sep 16 6:15 AM, Gary, Weather by CustomWeather, © 2014

Note: Actual official high and low records may vary slightly from our data, if they occured in-between our weather recording intervals... More about our weather records

Advertising

Gary weather history for previous 24 hours

 ConditionsComfort  
Time TempWeatherWind HumidityBarometerVisibility
6:15 AM
Sep 16
47 °FClear.No wind95%30.20 "Hg10 mi
5:55 AM48 °FClear.No wind96%30.19 "Hg10 mi
5:35 AM48 °FClear.3 mph94%30.19 "Hg10 mi
5:15 AM49 °FPassing clouds.5 mph95%30.19 "Hg10 mi
4:55 AM49 °FPassing clouds.3 mph94%30.19 "Hg10 mi
4:35 AM50 °FOvercast.7 mph95%30.18 "Hg10 mi
4:15 AM49 °FOvercast.5 mph97%30.19 "Hg10 mi
3:55 AM48 °FPassing clouds.No wind97%30.19 "Hg10 mi
3:35 AM48 °FPassing clouds.No wind97%30.19 "Hg10 mi
3:15 AM49 °FPassing clouds.3 mph97%30.19 "Hg10 mi
2:55 AM48 °FClear.3 mph96%30.19 "Hg10 mi
2:35 AM48 °FClear.No wind95%30.19 "Hg10 mi
2:15 AM49 °FClear.3 mph93%30.18 "Hg10 mi
1:55 AM50 °FClear.3 mph92%30.18 "Hg10 mi
1:35 AM51 °FClear.6 mph91%30.17 "Hg10 mi
1:15 AM51 °FClear.5 mph92%30.17 "Hg10 mi
12:55 AM52 °FClear.5 mph91%30.17 "Hg10 mi
12:35 AM53 °FPassing clouds.5 mph91%30.17 "Hg10 mi
12:15 AM54 °FPassing clouds.5 mph91%30.16 "Hg10 mi
11:55 PM
Sep 15
55 °FOvercast.6 mph90%30.16 "Hg10 mi
11:35 PM56 °FOvercast.6 mph89%30.16 "Hg10 mi
11:15 PM56 °FMostly cloudy.9 mph89%30.16 "Hg10 mi
10:55 PM56 °FOvercast.6 mph93%30.16 "Hg10 mi
10:35 PM56 °FMostly cloudy.5 mph93%30.15 "Hg10 mi
10:15 PM56 °FMostly cloudy.6 mph94%30.15 "Hg10 mi
9:55 PM56 °FMostly cloudy.3 mph97%30.14 "Hg7 mi
9:35 PM55 °FOvercast.No wind97%30.14 "Hg7 mi
9:15 PM55 °FFog.No wind98%30.14 "Hg5 mi
8:55 PM55 °FFog.No wind97%30.13 "Hg5 mi
8:35 PM55 °FFog.5 mph97%30.13 "Hg5 mi
8:15 PM55 °FFog.3 mph97%30.12 "Hg5 mi
7:55 PM55 °FFog.5 mph96%30.12 "Hg5 mi
7:35 PM54 °FMostly cloudy.No wind97%30.12 "Hg10 mi
7:15 PM54 °FMostly cloudy.No wind96%30.12 "Hg10 mi
6:55 PM54 °FMostly cloudy.No wind95%30.11 "Hg10 mi
6:35 PM55 °FMostly cloudy.No wind96%30.12 "Hg10 mi
6:15 PM54 °FLight rain. Mostly cloudy.No wind96%30.12 "Hg7 mi
5:55 PM54 °FRain. Mostly cloudy.No wind97%30.12 "Hg4 mi
5:15 PM55 °FRain. Cloudy.3 mph94%30.10 "Hg3 mi
4:55 PM56 °FDrizzle. Cloudy.No wind92%30.09 "Hg5 mi
4:35 PM56 °FMostly cloudy.No wind89%30.09 "Hg10 mi
4:15 PM56 °FOvercast.No wind92%30.09 "Hg10 mi
3:55 PM56 °FMore clouds than sun.No wind92%30.09 "Hg10 mi
3:35 PM56 °FRain. Overcast.No wind92%30.09 "Hg7 mi
3:15 PM56 °FMore clouds than sun.3 mph92%30.09 "Hg10 mi
2:55 PM56 °FOvercast.6 mph92%30.09 "Hg10 mi
2:35 PM56 °FLight rain. More clouds than sun.7 mph92%30.10 "Hg10 mi
2:15 PM56 °FLight rain. Overcast.6 mph88%30.11 "Hg10 mi
1:55 PM56 °FLight rain. More clouds than sun.9 mph86%30.10 "Hg10 mi
1:35 PM58 °FOvercast.8 mph80%30.11 "Hg10 mi
1:15 PM58 °FOvercast.8 mph80%30.12 "Hg10 mi
12:55 PM57 °FOvercast.7 mph83%30.13 "Hg10 mi
12:15 PM57 °FMostly cloudy.7 mph82%30.13 "Hg10 mi
11:55 AM58 °FOvercast.8 mph84%30.14 "Hg10 mi
11:35 AM57 °FOvercast.6 mph85%30.15 "Hg10 mi
11:15 AM57 °FOvercast.7 mph85%30.15 "Hg10 mi
10:55 AM57 °FOvercast.8 mph82%30.15 "Hg10 mi
10:35 AM58 °FOvercast.7 mph85%30.15 "Hg10 mi
10:15 AM57 °FOvercast.5 mph82%30.15 "Hg10 mi
9:55 AM57 °FOvercast.5 mph82%30.14 "Hg10 mi
9:15 AM54 °FThundershowers. Partly sunny.3 mph87%30.14 "Hg10 mi
8:55 AM53 °FBroken clouds.6 mph92%30.17 "Hg10 mi
8:35 AM52 °FLight rain. Broken clouds.5 mph92%30.14 "Hg10 mi
8:15 AM52 °FLight rain. More clouds than sun.7 mph92%30.14 "Hg10 mi
7:55 AM52 °FHeavy rain. More clouds than sun.No wind88%30.18 "Hg10 mi
7:35 AM52 °FThundershowers. Overcast.3 mph88%30.18 "Hg10 mi
7:15 AM52 °FOvercast.5 mph88%30.16 "Hg10 mi
Weather by CustomWeather, © 2014

See weather overviewHow to use our weather pages